Location: Erdweis
(48.5167°N, 15.3500°E)
Time: 00:33:30
(UTC+00:00)

NOSS 2-2 (C) - Pass Details

Date: 26 January 2021
Orbit: 463 x 1745 km, 63.3° (Epoch: 03 March)

Event Time Altitude Azimuth Distance (km) Brightness Sun altitude
Rises 18:53:32 0° 319° (NW) 3,065 7.8 -30.6°
Reaches altitude 10° 18:55:34 10° 320° (NW) 2,284 7.0 -30.9°
Enters shadow 18:59:24 53° 332° (NNW) 1,080 4.8 -31.6°
